N0JY-4 Weather Reports


Display with metric or nautical units.
time (UTC)temp
F
wind
direction
speed
MPH
gust
MPH
rain 1hr
in
rain 24hr
in
rain mn
in
humidity
%
barometer
mb
20181019235330 62 278 0.0 0.0 0.05 0.04 0.83 97 1020.4
20181019234604 61 278 0.0 0.0 0.05 0.04 0.83 97 1020.5
20181019233830 62 278 0.0 0.0 0.05 0.04 0.83 96 1020.5
20181019233102 61 278 0.0 0.0 0.05 0.04 0.83 97 1020.5
20181019232335 62 278 0.0 0.0 0.05 0.04 0.83 97 1020.5
20181019231606 63 278 0.0 0.0 0.05 0.04 0.82 97 1020.3
20181019230826 63 278 0.0 0.0 0.05 0.04 0.81 97 1020.5
20181019230100 61 278 0.0 0.0 0.05 0.04 0.81 97 1020.5
20181019225333 61 278 0.0 0.0 0.01 0.04 0.80 97 1020.3
20181019224605 61 278 0.0 0.0 0.01 0.04 0.80 97 1020.4
20181019223110 63 278 0.0 0.0 0.01 0.04 0.77 97 1020.6
20181019222342 62 278 0.0 0.0 0.01 0.04 0.77 97 1020.5
20181019221616 61 278 0.0 0.0 0.01 0.04 0.76 97 1020.8
20181019220844 63 243 0.0 0.0 0.01 0.04 0.76 97 1020.8
20181019220116 61 243 0.0 0.0 0.01 0.04 0.76 97 1020.9
20181019213849 62 260 1.0 2.0 0.14 0.04 0.76 97 1021.2
20181019212354 61 193 0.0 0.0 0.14 0.04 0.76 97 1021.2
20181019211628 60 281 2.0 1.0 0.14 0.04 0.76 97 1021.1
20181019210130 61 304 0.0 3.0 0.14 0.04 0.75 97 1021.1
20181019204636 61 245 0.0 0.0 0.21 0.04 0.73 97 1021.3
20181019203902 62 245 0.0 0.0 0.21 0.04 0.71 97 1021.3
20181019203135 62 245 0.0 0.0 0.21 0.04 0.69 97 1021.3
20181019202408 61 245 0.0 0.0 0.21 0.04 0.66 97 1021.4
20181019200909 62 301 0.0 0.0 0.21 0.04 0.62 97 1021.5
20181019200143 61 301 0.0 0.0 0.21 0.04 0.61 97 1021.5
20181019195416 62 301 0.0 0.0 0.11 0.04 0.60 97 1021.6
20181019194649 62 301 0.0 0.0 0.11 0.04 0.57 97 1021.5
20181019193916 60 308 0.0 0.0 0.11 0.04 0.54 97 1021.6
20181019193150 61 308 0.0 0.0 0.11 0.04 0.52 97 1021.7
20181019192423 60 308 0.0 0.0 0.11 0.04 0.51 97 1021.8
20181019191653 62 308 0.0 0.0 0.11 0.04 0.50 97 1021.9
20181019190922 61 308 2.0 0.0 0.11 0.04 0.48 97 1022.0
20181019185429 62 318 0.0 0.0 0.02 0.04 0.38 96 1022.2
20181019184702 60 318 0.0 0.0 0.02 0.04 0.37 97 1022.3
20181019183930 60 308 2.0 0.0 0.02 0.04 0.36 96 1022.4
20181019183204 61 338 1.0 3.0 0.02 0.04 0.35 97 1022.5
20181019182437 62 309 2.0 3.0 0.02 0.04 0.34 96 1022.6
20181019181750 62 326 2.0 3.0 0.02 0.04 0.34 96 1022.7
20181019181710 62 326 2.0 3.0 0.02 0.04 0.34 96 1022.7
20181019180211 60 356 3.0 2.0 0.02 0.04 0.30 96 1022.9
20181019175445 61 307 1.0 3.0 0.01 0.04 0.28 96 1023.1
20181019174718 61 105 0.0 0.0 0.01 0.04 0.27 95 1023.0
20181019173944 61 105 0.0 0.0 0.01 0.04 0.27 95 1023.4
20181019173217 61 105 0.0 0.0 0.01 0.04 0.27 95 1023.5
20181019172450 61 105 0.0 0.0 0.01 0.04 0.27 95 1023.6
20181019171721 61 105 0.0 0.0 0.01 0.04 0.27 95 1023.6
20181019170225 61 105 0.0 0.0 0.01 0.04 0.27 95 1023.9
20181019165457 61 105 0.0 0.0 0.01 0.04 0.27 95 1023.8
20181019164730 61 105 1.0 0.0 0.01 0.04 0.26 95 1023.9
20181019163957 60 122 5.0 3.0 0.01 0.04 0.26 95 1023.8
20181019163229 60 322 1.0 0.0 0.01 0.04 0.26 95 1023.8
20181019162501 60 304 0.0 0.0 0.01 0.04 0.26 95 1023.9
20181019161732 61 304 1.0 0.0 0.01 0.04 0.26 95 1023.9
20181019160958 60 325 1.0 2.0 0.01 0.04 0.26 95 1023.8
20181019160231 61 305 0.0 0.0 0.01 0.04 0.26 95 1023.9
20181019155506 62 305 2.0 0.0 0.00 0.04 0.26 95 1024.0
20181019154737 61 339 3.0 3.0 0.00 0.04 0.25 96 1024.0
20181019154005 60 318 2.0 1.0 0.00 0.04 0.25 96 1024.0
20181019153239 60 311 2.0 0.0 0.00 0.04 0.25 96 1024.0
20181019152509 60 293 0.0 2.0 0.00 0.04 0.25 96 1024.2
20181019151743 59 271 2.0 1.0 0.00 0.04 0.25 96 1024.1
20181019151011 61 302 1.0 1.0 0.00 0.04 0.25 96 1024.1
20181019150245 61 290 0.0 0.0 0.00 0.04 0.25 96 1024.2
20181019144750 60 0 0.0 0.0 0.03 0.04 0.25 96 1024.0
20181019144021 59 0 0.0 0.0 0.03 0.04 0.25 97 1024.0
20181019142525 61 0 0.0 0.0 0.03 0.04 0.25 97 1023.9
20181019141023 60 0 0.0 0.0 0.03 0.04 0.25 97 1023.6
20181019140258 59 0 0.0 0.0 0.03 0.04 0.25 97 1023.5
20181019135526 59 0 0.0 0.0 0.18 0.04 0.25 97 1023.3
20181019134803 59 0 0.0 0.0 0.18 0.04 0.25 96 1023.3
20181019134028 60 0 0.0 0.0 0.18 0.04 0.25 96 1023.3
20181019133259 60 0 0.0 0.0 0.18 0.04 0.25 96 1023.3
20181019132532 61 0 0.0 0.0 0.18 0.04 0.25 96 1023.0
20181019131806 59 340 2.0 2.0 0.18 0.04 0.25 96 1023.1
20181019131032 59 38 0.0 0.0 0.18 0.04 0.25 96 1023.0
20181019130305 58 7 1.0 2.0 0.18 0.04 0.23 96 1023.0
20181019124812 59 90 3.0 2.0 0.01 0.04 0.08 96 1023.0
20181019124041 59 18 1.0 2.0 0.01 0.04 0.06 96 1023.0
20181019123314 60 28 2.0 2.0 0.01 0.04 0.06 96 1023.0
20181019122547 60 25 1.0 1.0 0.01 0.04 0.05 96 1022.9
20181019121820 60 39 0.0 1.0 0.01 0.04 0.05 96 1022.9
20181019121048 61 23 0.0 0.0 0.01 0.04 0.04 95 1022.9
20181019120321 59 23 0.0 0.0 0.01 0.04 0.04 95 1022.9
20181019115555 60 23 0.0 0.0 0.01 0.04 0.04 95 1023.0
20181019114829 59 21 0.0 0.0 0.01 0.04 0.04 95 1022.9
20181019114056 59 21 0.0 0.0 0.01 0.04 0.03 95 1022.9
20181019112602 60 15 0.0 0.0 0.01 0.04 0.03 95 1022.7
20181019111834 60 15 0.0 0.0 0.01 0.04 0.03 95 1022.8
20181019110337 60 89 3.0 3.0 0.01 0.04 0.03 95 1022.5
20181019105610 61 27 3.0 2.0 0.01 0.04 0.03 95 1022.5
20181019104844 59 25 0.0 0.0 0.01 0.04 0.03 95 1022.5
20181019104112 60 18 2.0 3.0 0.01 0.04 0.02 95 1022.6
20181019103342 59 356 0.0 0.0 0.01 0.04 0.02 95 1022.6
20181019102616 59 32 3.0 3.0 0.01 0.04 0.02 95 1022.5
20181019101849 60 25 0.0 2.0 0.01 0.04 0.02 95 1022.6
20181019101116 59 13 2.0 1.0 0.01 0.04 0.02 95 1022.5
20181019100350 59 15 2.0 2.0 0.01 0.04 0.02 95 1022.6
20181019095620 59 49 1.0 2.0 0.01 0.04 0.02 94 1022.7
20181019094855 61 96 0.0 0.0 0.01 0.04 0.02 94 1022.6
20181019094123 61 96 0.0 0.0 0.01 0.04 0.02 94 1022.7
20181019093356 60 96 0.0 0.0 0.01 0.04 0.02 93 1023.0
20181019092629 61 96 0.0 0.0 0.01 0.04 0.02 93 1022.8
20181019091903 61 96 0.0 0.0 0.01 0.04 0.02 93 1022.8
20181019091131 61 96 0.0 0.0 0.01 0.04 0.01 93 1022.9
20181019084911 60 96 0.0 0.0 0.00 0.04 0.01 92 1023.4
20181019084137 61 96 0.0 0.0 0.00 0.04 0.00 92 1023.5
20181019083408 59 96 0.0 0.0 0.00 0.04 0.00 92 1023.4
20181019082642 60 96 0.0 0.0 0.00 0.04 0.00 92 1023.6
20181019081914 60 96 0.0 0.0 0.00 0.04 0.00 92 1023.5
20181019081142 60 96 0.0 0.0 0.00 0.04 0.00 91 1023.6
20181019080411 61 96 0.0 0.0 0.00 0.04 0.00 91 1023.6
20181019075645 60 96 0.0 0.0 0.00 0.04 0.00 91 1023.6
20181019074919 61 96 0.0 0.0 0.00 0.04 0.00 91 1023.7
20181019074146 61 96 0.0 0.0 0.00 0.04 0.00 91 1023.9
20181019073419 59 96 0.0 0.0 0.00 0.04 0.00 91 1023.9
20181019072652 61 96 0.0 0.0 0.00 0.04 0.00 91 1024.1
20181019071152 60 121 2.0 2.0 0.00 0.04 0.00 91 1024.1
20181019070426 61 62 2.0 1.0 0.00 0.04 0.00 91 1024.1
20181019065659 59 18 1.0 0.0 0.00 0.04 0.00 90 1024.2
20181019064201 60 30 0.0 0.0 0.00 0.04 0.00 90 1024.2
20181019063434 61 30 0.0 0.0 0.00 0.04 0.00 90 1024.2
20181019062708 61 30 0.0 0.0 0.00 0.04 0.00 90 1024.2
20181019061941 61 17 0.0 0.0 0.00 0.04 0.00 90 1024.2
20181019061209 60 20 2.0 1.0 0.00 0.04 0.00 89 1024.2
20181019055714 61 4 1.0 0.0 0.01 0.04 0.00 88 1024.5
20181019054948 59 34 3.0 4.0 0.01 0.04 0.00 88 1024.5
20181019054218 60 24 2.0 2.0 0.01 0.04 0.00 88 1024.7
20181019053449 60 10 1.0 0.0 0.01 0.04 0.00 88 1024.7
20181019052723 59 52 3.0 2.0 0.01 0.04 0.00 87 1024.7
20181019051956 61 53 4.0 2.0 0.01 0.04 0.00 86 1024.8
20181019051225 60 90 5.0 8.0 0.01 0.04 0.00 85 1025.0
20181019050458 62 86 6.0 3.0 0.01 0.04 0.00 83 1025.2
20181019045732 61 105 5.0 5.0 0.00 0.84 0.04 82 1025.2
20181019045006 62 56 0.0 0.0 0.00 0.84 0.04 80 1025.3
20181019044234 61 86 4.0 3.0 0.00 0.84 0.03 78 1025.1
20181019043508 63 107 2.0 1.0 0.00 0.84 0.03 78 1025.1
20181019042740 61 59 3.0 2.0 0.00 0.84 0.03 78 1025.0
20181019042014 63 84 5.0 4.0 0.00 0.84 0.03 80 1025.0
20181019041239 63 104 5.0 6.0 0.00 0.84 0.03 81 1025.0
20181019035746 62 70 2.0 4.0 0.00 0.84 0.03 82 1025.1
20181019035020 63 59 2.0 3.0 0.00 0.84 0.03 81 1025.2
20181019034247 62 48 3.0 1.0 0.00 0.84 0.03 81 1025.2
20181019032753 62 113 3.0 2.0 0.00 0.84 0.03 80 1025.5
20181019032024 63 104 3.0 3.0 0.00 0.84 0.03 81 1025.5
20181019031243 63 48 2.0 2.0 0.00 0.84 0.03 80 1025.5
20181019030517 63 18 0.0 0.0 0.00 0.84 0.03 80 1025.6
20181019025753 64 105 3.0 3.0 0.00 0.84 0.03 80 1025.6
20181019025021 63 56 3.0 4.0 0.00 0.84 0.03 81 1025.5
20181019024250 62 34 2.0 2.0 0.00 0.84 0.03 81 1025.5
20181019023522 64 66 2.0 5.0 0.00 0.84 0.03 81 1025.5
20181019022755 63 35 1.0 0.0 0.00 0.84 0.03 82 1025.5
20181019022026 63 15 0.0 0.0 0.00 0.84 0.03 82 1025.5
20181019021256 63 15 0.0 0.0 0.00 0.84 0.03 82 1025.4
20181019020528 63 15 1.0 0.0 0.00 0.84 0.03 82 1025.6
20181019015800 62 8 0.0 0.0 0.00 0.84 0.03 81 1025.6
20181019014301 63 14 0.0 2.0 0.00 0.84 0.03 82 1025.5
20181019013534 63 34 0.0 0.0 0.00 0.84 0.03 82 1025.6
20181019012809 62 37 3.0 1.0 0.00 0.84 0.03 82 1025.5
20181019012041 63 17 3.0 4.0 0.00 0.84 0.03 83 1025.4
20181019011310 62 15 4.0 6.0 0.00 0.84 0.03 85 1025.3
20181019010543 64 13 0.0 0.0 0.00 0.84 0.03 87 1025.3
20181019005818 64 13 0.0 0.0 0.00 0.84 0.03 86 1025.3
20181019005050 64 10 3.0 2.0 0.00 0.84 0.03 86 1025.4
20181019004318 64 356 0.0 0.0 0.00 0.84 0.03 90 1025.4
20181019003549 63 356 0.0 0.0 0.00 0.84 0.03 90 1025.4
20181019002822 64 356 0.0 0.0 0.00 0.84 0.03 90 1025.3
20181019002058 63 356 0.0 0.0 0.00 0.84 0.03 90 1025.3
20181019001323 64 356 0.0 0.0 0.00 0.84 0.03 90 1025.2
20181019000555 64 356 0.0 0.0 0.00 0.84 0.03 90 1025.2
20181018235829 63 356 0.0 0.0 0.00 0.84 0.03 90 1025.2